Theta_e
320 321 321 321 321 321 322 324 326 326 326 322 321 323 322 322 324 324 323 324 326 327 328 329 331 331 332 332 333 336 336 336 337 339 340 339 335 336 337 334 329 316 319 332 332 334 335 336 336 337 337 336 336 335 334 332 329 321 316 313 314 315 314 316 314 313 314 313 313 312 314 316 318 319 320 321 320 317 312 314 321 322 324 327 328 328 325 322 319 317 318 319 319 319 319 319 319
321 321 321 321 322 324 324 322 324 325 323 320 321 323 323 322 325 325 325 326 326 326 328 330 329 329 330 330 331 336 337 336 337 339 339 336 336 336 336 332 324 314 316 330 333 334 335 335 336 336 336 335 335 334 332 328 323 318 315 315 315 316 316 316 313 313 314 314 315 314 313 314 316 318 320 321 318 318 317 319 326 327 326 327 328 327 323 319 315 315 315 316 317 318 318 318 317
321 321 321 321 323 324 326 323 322 322 321 320 320 322 324 325 326 327 327 326 326 326 329 329 329 328 329 329 330 338 338 336 334 336 337 335 336 336 336 331 323 315 312 324 332 333 334 334 335 334 334 334 334 332 329 326 322 319 316 315 316 317 317 314 312 313 317 317 316 316 315 316 320 322 321 322 323 326 328 327 328 329 330 331 329 325 319 314 313 314 314 315 316 317 317 317 316
321 321 321 321 323 325 327 326 324 322 320 320 321 323 324 326 328 327 327 327 327 327 329 328 329 329 329 329 331 338 339 337 335 334 336 336 336 336 336 331 324 315 314 322 325 330 331 331 332 330 331 332 332 330 325 324 322 320 316 317 319 318 317 314 314 315 317 318 317 315 315 317 323 325 323 323 327 329 331 331 330 328 330 332 328 319 313 312 313 315 315 316 316 316 316 316 314
320 321 321 321 324 326 326 324 323 323 320 321 321 323 324 326 327 327 327 328 327 327 328 328 330 328 327 331 333 338 338 338 336 335 336 336 335 336 336 331 324 315 322 329 321 324 328 325 327 323 322 324 326 323 317 317 318 316 315 319 322 321 319 315 316 319 318 321 320 316 318 320 323 326 323 322 328 330 330 331 331 329 328 328 324 315 311 312 314 315 316 315 315 314 314 313 312
322 321 322 322 324 324 325 323 321 322 321 323 322 322 324 325 327 327 328 327 328 329 328 328 329 327 331 333 334 337 338 338 337 337 337 336 335 336 336 330 324 315 324 330 319 318 323 321 322 320 317 317 319 319 315 314 312 313 314 318 322 323 321 315 315 321 320 320 321 321 322 321 323 326 323 322 328 331 331 331 332 330 325 322 319 313 312 312 313 314 314 314 313 313 312 312 312
322 321 323 324 325 323 326 326 322 323 322 322 322 322 324 325 326 327 327 327 328 328 326 329 328 328 333 332 333 336 337 337 337 337 337 336 334 335 334 330 325 317 320 324 315 313 316 317 320 319 316 315 316 316 317 314 310 313 315 318 320 321 321 317 318 321 319 318 322 325 324 322 324 327 326 325 327 329 330 330 329 326 321 317 314 312 312 312 313 313 313 312 312 311 311 311 311
321 321 322 325 327 326 328 327 323 324 322 321 322 322 324 324 326 326 326 326 326 327 325 327 327 327 329 332 336 335 336 338 337 337 338 335 332 333 333 332 327 320 318 318 312 310 310 313 316 314 313 313 313 314 316 315 312 312 315 318 319 321 320 321 322 321 319 319 323 326 325 323 324 325 326 325 324 325 325 327 326 323 319 314 312 312 312 311 312 312 312 312 311 311 311 311 311
321 322 323 325 328 328 329 327 323 323 322 321 321 321 324 324 325 325 325 324 323 325 325 325 326 327 327 334 338 335 335 338 336 336 337 333 332 333 334 332 327 321 318 314 309 309 308 309 310 309 309 310 311 311 314 316 313 311 315 319 320 322 322 324 324 322 320 321 324 326 324 322 323 325 326 325 324 324 324 326 325 322 318 312 311 312 311 312 312 312 312 312 312 312 312 312 312
320 323 323 326 328 327 328 327 323 323 322 321 320 321 323 324 325 325 323 323 322 324 326 325 326 325 326 335 338 335 335 337 335 336 335 332 333 334 334 332 325 320 315 311 309 308 307 308 308 308 307 309 309 311 314 315 313 312 317 319 320 322 322 323 324 323 321 321 323 325 323 321 321 323 325 326 325 323 323 323 321 320 316 311 311 312 312 312 312 312 313 313 313 313 314 314 314
322 324 323 327 328 326 327 326 323 323 322 321 321 321 322 323 324 325 324 322 322 325 326 324 325 324 325 335 339 337 335 336 335 336 334 331 334 335 335 331 324 318 313 310 309 308 307 308 308 307 307 308 309 314 316 314 311 314 320 319 319 321 318 318 321 323 321 319 321 321 320 318 318 320 322 325 325 321 319 318 318 316 312 311 311 312 312 312 312 313 313 314 314 315 315 315 315
324 326 326 327 327 327 328 326 323 323 323 321 321 320 322 324 324 325 325 322 321 325 325 322 325 322 323 335 338 336 335 337 336 336 334 331 334 335 334 330 323 317 312 310 309 308 308 308 308 308 309 309 312 318 317 312 310 315 322 319 316 318 316 315 317 318 318 317 317 317 318 317 315 316 318 321 321 320 317 316 315 313 312 312 312 312 312 313 313 314 314 315 315 316 316 317 317
323 326 328 328 329 330 329 328 325 323 323 322 321 321 322 323 324 325 324 323 320 323 323 322 323 321 329 338 338 335 335 337 336 335 334 332 334 334 334 331 324 316 311 310 309 308 308 308 308 308 309 311 317 319 315 310 309 314 319 317 313 314 315 314 315 316 317 317 316 315 317 316 314 315 316 317 317 317 315 314 313 312 313 312 313 313 313 314 315 315 316 316 317 317 318 318 319
323 324 327 328 330 330 329 329 327 324 322 323 322 320 322 323 324 325 323 323 322 324 323 322 322 322 332 338 337 336 336 337 336 334 333 333 334 334 332 329 324 316 311 310 309 308 308 308 308 309 310 313 318 318 314 310 309 311 312 312 312 313 313 313 315 316 316 316 314 314 314 314 314 314 315 316 316 315 314 314 314 313 314 314 314 315 315 316 316 317 317 318 318 319 319 319 320
323 323 326 329 328 329 329 329 329 326 322 322 322 321 322 323 324 324 323 323 324 325 323 321 321 324 330 335 337 336 336 337 336 334 332 332 334 333 332 328 322 315 311 312 310 309 309 309 308 309 311 314 317 318 314 309 308 310 309 311 313 312 312 314 316 316 316 315 314 315 315 315 315 315 315 316 315 315 315 315 315 315 316 316 316 317 317 318 318 318 319 319 319 319 320 320 321
321 322 326 328 327 328 329 329 330 327 322 321 322 322 322 323 324 323 323 323 324 323 323 323 321 326 333 336 337 334 336 336 335 334 332 332 333 333 333 329 323 314 313 317 314 311 311 311 311 308 312 317 318 318 316 311 309 309 309 311 313 313 313 315 316 316 316 316 316 316 316 316 316 316 316 317 317 317 317 317 317 318 318 318 318 318 319 319 319 319 319 319 319 320 320 321 321
320 323 326 327 326 328 329 329 330 325 320 320 321 322 322 322 322 322 322 323 323 322 323 325 322 325 332 336 337 334 335 336 334 334 331 331 331 331 331 329 326 315 314 321 316 313 313 312 315 311 311 318 317 318 318 314 310 308 309 311 313 314 314 316 317 316 316 316 317 317 317 317 317 317 317 318 318 318 319 319 319 319 319 319 319 319 319 319 319 319 319 320 320 321 321 321 322
321 325 327 326 327 328 328 328 326 322 319 320 321 322 323 322 322 321 321 322 322 322 324 326 324 323 326 333 337 333 333 334 334 333 331 330 330 331 329 327 328 319 314 322 316 313 313 312 316 313 312 318 320 320 319 315 311 309 309 311 313 313 314 316 317 316 316 316 317 317 317 318 317 318 318 318 319 318 318 319 319 319 319 319 320 319 320 320 320 320 320 320 320 321 321 321 321
323 325 326 327 329 327 325 324 321 321 320 319 320 320 322 322 322 321 321 322 322 322 323 325 326 324 324 330 334 331 331 333 333 333 331 330 330 330 328 327 330 323 314 320 317 313 313 310 313 315 314 317 322 323 320 316 311 309 309 311 313 314 314 316 317 317 316 316 317 317 318 318 318 318 318 319 318 318 319 319 319 319 320 320 320 320 320 320 320 320 320 321 321 321 321 320 321
323 325 327 328 328 325 322 322 319 320 320 318 319 318 320 321 321 321 321 322 321 322 323 323 326 326 324 326 329 328 329 331 332 333 331 330 330 330 327 326 330 327 318 318 318 315 314 312 311 314 314 316 321 322 320 317 310 308 310 311 314 314 314 315 317 317 316 316 317 317 318 319 318 318 319 318 318 318 319 319 319 319 320 320 320 320 320 320 320 321 321 322 322 322 322 321 322
324 324 326 326 325 325 321 320 319 319 319 319 318 317 318 319 320 321 321 322 322 322 323 323 324 326 324 322 325 325 326 329 331 333 333 331 332 332 329 326 328 328 323 318 318 317 316 315 312 312 311 313 318 319 319 317 310 308 310 311 314 314 314 315 316 317 317 317 317 318 322 322 318 318 319 318 318 318 319 319 319 319 320 320 320 320 320 321 321 322 322 322 322 322 322 323 324
325 324 325 324 323 324 320 318 318 318 319 319 318 317 318 318 319 320 320 321 322 321 322 322 323 324 324 322 322 323 324 325 328 332 334 333 332 333 332 330 327 327 326 321 319 319 318 317 314 313 311 310 313 315 316 315 310 309 312 311 313 314 314 314 315 317 317 317 317 319 324 324 319 318 318 318 319 318 319 319 319 319 320 320 320 320 321 321 322 322 322 322 322 322 322 322 322
325 324 324 323 322 321 318 317 318 318 318 318 318 318 318 318 318 318 319 320 320 320 321 321 321 323 324 323 322 322 322 323 323 326 330 332 332 332 333 332 329 327 328 325 321 321 319 318 316 314 313 311 310 311 312 313 310 310 313 312 313 314 314 314 315 316 317 317 317 319 324 323 320 318 318 318 318 318 319 319 319 319 319 320 320 321 321 322 322 322 322 322 322 322 322 322 322
325 325 324 323 323 320 317 317 317 317 318 318 317 317 317 317 318 318 318 319 319 319 320 319 320 324 326 324 323 321 320 320 320 321 324 328 329 330 332 333 330 328 329 328 324 322 321 320 318 317 315 313 311 311 311 311 310 311 312 311 312 314 314 314 314 315 316 316 317 318 321 320 319 318 318 318 318 318 319 319 319 319 319 320 320 321 321 322 322 322 322 322 322 322 322 323 323
324 326 327 323 323 320 316 316 317 316 317 317 316 316 317 317 317 317 317 318 318 318 319 318 318 326 329 324 322 321 319 320 320 321 323 325 328 330 332 332 332 330 329 328 325 323 322 321 320 319 318 315 313 312 311 311 311 311 311 311 312 313 314 314 314 315 315 316 317 317 318 317 317 318 318 318 318 318 319 319 319 320 320 320 320 321 321 322 322 321 322 321 321 322 323 324 324
322 325 328 323 320 320 317 316 316 316 316 315 315 316 317 317 317 317 318 318 318 318 319 318 317 325 330 326 322 320 319 320 320 321 321 322 327 331 331 331 331 330 328 328 326 326 324 323 322 321 320 318 316 314 313 312 312 311 311 311 311 312 313 314 314 315 315 315 316 316 317 317 317 318 318 318 318 318 318 319 319 320 320 320 320 321 321 321 321 321 323 323 322 323 324 324 324
323 325 328 323 319 320 318 317 317 316 317 316 315 317 317 317 316 317 319 318 318 318 318 318 317 320 325 328 325 321 319 319 319 322 322 323 327 330 329 328 329 329 328 328 327 327 326 324 323 322 321 320 318 316 315 314 314 313 312 312 312 312 312 313 314 315 315 315 316 316 317 317 317 317 318 318 318 318 318 319 319 319 320 320 320 321 320 321 320 321 323 323 323 323 323 324 323
327 326 326 323 320 320 318 318 318 317 318 317 316 317 317 316 316 317 318 318 318 318 317 318 318 318 321 325 327 325 321 321 321 321 321 321 324 326 325 323 324 327 329 328 326 326 327 325 324 323 322 322 320 319 317 315 314 314 314 313 313 313 313 313 314 315 315 315 316 316 316 317 317 317 318 318 318 318 319 319 319 319 320 320 321 321 321 321 321 322 323 323 323 323 322 322 321
327 325 323 321 320 320 319 318 319 318 318 318 317 319 319 317 316 317 318 318 318 318 318 319 319 319 321 323 326 326 324 325 325 321 318 318 319 320 320 318 320 324 326 329 328 326 326 325 324 324 323 322 322 321 320 318 316 315 315 315 315 314 314 314 314 315 315 315 316 316 316 317 317 317 318 318 318 318 319 320 320 320 321 321 321 321 321 321 321 321 322 322 323 323 322 321 320
326 324 323 324 324 322 321 320 320 319 318 317 319 322 323 321 319 318 319 318 317 317 318 320 320 319 320 321 324 326 325 327 326 320 317 318 318 318 318 318 320 322 323 328 329 327 325 325 323 324 324 323 323 322 321 320 319 317 316 316 316 316 315 315 315 315 316 316 316 316 316 317 317 317 318 318 318 319 320 320 321 321 321 321 321 321 321 321 322 322 322 322 322 322 322 321 321
326 326 327 329 330 328 325 322 320 320 319 318 319 322 325 324 322 320 319 318 317 318 318 319 321 320 320 321 323 325 325 325 323 320 319 319 318 317 317 319 320 321 323 325 326 326 326 324 322 322 323 324 323 323 322 321 321 320 318 317 316 316 316 316 316 316 316 317 317 317 317 317 318 318 318 319 320 320 320 321 321 321 321 321 321 321 321 322 322 322 322 322 322 322 322 321 322
326 329 330 330 331 331 328 324 322 321 319 318 320 322 323 323 323 321 319 319 318 317 318 318 320 320 320 321 323 325 326 325 323 321 321 319 319 318 317 318 319 320 321 321 323 325 325 323 322 322 322 322 322 323 323 322 322 321 320 319 317 317 316 317 317 317 317 317 317 318 318 318 318 319 319 320 320 321 321 321 321 321 321 322 323 323 323 323 322 322 322 321 321 321 321 321 322
327 329 331 332 331 330 329 327 325 322 319 318 320 323 325 323 323 322 319 318 318 317 318 318 319 319 321 321 323 324 326 327 325 323 320 318 318 318 317 318 318 318 318 319 320 323 323 322 322 321 320 320 320 322 323 323 323 322 321 321 320 319 317 317 317 318 318 318 318 318 318 319 319 319 320 320 321 321 321 321 321 321 322 324 324 324 324 323 322 322 321 321 321 321 321 322 322
329 330 331 331 331 331 330 328 327 325 321 320 320 322 326 324 322 322 320 318 317 317 318 319 318 319 320 321 322 322 322 324 325 322 318 317 318 319 320 319 318 318 318 318 319 320 321 321 321 320 319 319 319 321 323 323 323 323 322 322 322 321 320 318 318 318 318 318 318 318 318 318 319 320 320 321 321 321 320 320 321 322 324 325 325 325 325 324 323 322 321 320 321 321 322 322 321
330 331 330 330 331 332 329 326 327 326 325 324 322 321 323 324 323 321 319 318 318 318 319 320 320 320 319 320 322 321 320 320 320 318 316 318 319 319 320 319 318 319 319 319 320 320 321 322 322 320 318 318 318 319 321 323 323 323 323 323 323 322 322 321 320 318 318 318 318 319 319 319 319 320 320 320 320 320 320 320 321 324 325 326 326 326 326 325 325 324 322 321 321 321 322 322 321
331 331 329 329 331 332 329 325 325 326 326 326 324 322 323 324 324 322 320 319 319 320 320 320 321 320 319 319 320 321 321 319 317 316 316 318 319 318 318 317 317 318 319 320 321 320 320 321 322 321 319 318 318 318 318 321 323 323 324 323 323 323 323 323 322 321 320 319 318 318 319 319 319 319 320 320 320 320 320 321 322 325 327 327 327 327 327 327 326 325 323 321 321 322 322 322 322
331 330 329 329 330 331 329 325 323 324 325 326 325 325 325 325 326 324 323 321 318 318 319 319 320 319 318 318 318 319 320 319 317 316 317 317 318 317 316 316 315 316 318 319 320 320 318 319 320 320 318 317 317 317 316 317 319 321 322 323 322 322 323 323 322 322 321 320 319 319 318 318 318 318 319 319 319 320 320 322 324 325 327 328 328 328 328 327 327 325 324 322 322 322 323 323 323
329 330 330 330 331 331 326 322 321 322 323 325 325 325 325 325 325 324 324 323 320 318 318 318 319 319 319 318 317 317 318 318 317 316 316 317 317 316 316 316 315 315 315 316 317 317 317 317 318 319 318 317 316 316 315 315 315 316 318 319 320 321 321 321 320 319 320 320 320 319 319 318 318 318 318 318 319 319 320 321 323 325 327 328 328 328 328 328 327 326 324 323 323 323 323 323 323
330 331 331 331 331 331 323 317 317 318 320 324 324 324 324 323 324 323 322 322 323 322 320 320 320 320 320 320 318 317 317 317 317 317 316 316 316 316 316 316 315 315 315 315 315 315 316 316 316 317 317 316 315 315 314 315 315 316 316 316 318 319 320 320 319 319 319 319 319 319 319 319 319 319 319 319 319 319 320 320 322 323 325 326 327 327 328 328 327 326 325 323 323 323 324 323 323
330 330 331 331 331 333 326 318 317 317 319 322 321 321 321 321 323 322 321 320 321 322 322 322 322 321 321 321 321 319 319 318 318 318 317 316 316 315 315 315 315 315 314 315 315 314 315 315 315 316 316 316 315 315 315 315 315 316 317 317 318 319 320 320 321 320 320 320 319 318 318 319 319 320 320 320 320 320 320 321 322 323 324 325 326 327 327 327 326 326 325 324 323 323 324 324 323
331 331 331 331 331 332 326 320 318 316 318 318 318 323 323 323 324 323 322 321 320 320 321 321 321 321 321 321 322 322 321 321 319 319 318 317 316 315 315 315 315 315 315 315 314 314 314 314 315 315 315 316 315 315 315 316 316 316 317 318 319 320 320 320 320 320 319 318 318 317 317 318 318 319 320 321 321 321 321 321 322 323 324 326 326 327 327 327 326 326 325 325 324 324 324 324 323
330 329 330 330 331 329 322 321 322 321 324 320 319 329 332 328 327 326 325 324 322 321 320 320 320 320 320 320 321 322 323 323 320 319 319 318 317 316 316 315 316 315 315 315 315 314 314 314 314 314 314 315 315 315 315 316 317 316 317 317 317 318 318 317 317 316 315 315 315 315 316 316 317 317 318 319 320 321 321 321 321 322 324 325 326 326 326 326 326 325 325 325 324 324 324 324 324
329 329 329 329 330 329 324 323 326 328 328 321 320 329 331 327 325 325 326 326 325 324 322 321 320 320 320 319 319 319 321 323 321 319 319 319 318 317 316 316 316 316 315 315 315 315 315 315 314 314 314 314 315 315 315 316 316 316 316 316 315 315 314 314 313 313 314 314 314 314 315 316 316 316 316 317 319 320 320 320 321 321 322 323 324 325 325 325 326 325 324 324 325 324 324 325 324
329 329 329 329 329 329 326 325 327 329 326 321 319 323 326 326 323 323 324 324 325 325 325 324 321 320 319 319 319 318 319 321 321 320 319 319 319 318 318 317 316 316 316 316 315 315 315 315 315 314 315 314 314 315 315 315 315 315 316 316 316 315 314 314 314 315 316 316 317 316 315 316 316 316 315 315 316 318 319 320 320 321 321 322 323 324 324 325 325 324 324 324 325 324 324 325 324
327 327 328 329 327 328 326 325 325 327 327 325 321 320 325 326 323 322 324 323 323 324 325 325 322 320 320 319 319 318 318 319 320 321 320 320 320 319 321 321 318 317 317 317 316 315 315 315 315 315 315 315 314 315 315 315 314 314 314 315 315 315 315 315 316 317 318 318 319 317 316 316 316 316 315 315 315 316 318 319 319 320 320 320 322 323 324 326 325 323 325 326 325 324 325 324 324
324 325 326 326 326 326 324 324 325 325 325 326 324 322 325 328 325 324 325 324 323 323 324 324 321 321 321 320 319 318 318 318 319 320 320 321 321 321 321 321 319 318 317 317 316 315 315 314 314 314 315 315 315 315 314 315 314 314 314 314 314 314 315 316 317 318 318 319 319 318 317 317 315 315 315 315 315 316 317 318 319 320 320 320 320 321 324 326 325 325 327 327 325 325 325 323 324
321 323 324 324 324 323 322 323 323 325 325 325 325 323 324 328 328 325 325 326 324 323 323 323 322 321 321 320 320 319 319 318 318 318 319 319 320 320 319 318 317 317 316 317 317 316 315 314 314 314 315 315 315 314 314 314 314 314 314 314 313 313 315 317 318 318 319 320 319 319 319 318 317 316 315 315 315 316 317 318 319 319 320 320 320 321 322 323 324 326 327 326 326 327 326 323 325
321 322 322 323 323 322 322 322 322 326 327 324 324 324 323 326 328 326 326 325 323 323 323 324 323 321 321 320 320 319 319 318 318 318 317 318 318 318 318 317 315 315 315 316 317 317 315 315 315 315 315 315 315 314 315 314 314 314 314 315 314 314 315 316 317 317 318 320 319 320 320 320 320 318 317 317 316 315 316 316 317 318 319 320 319 320 321 322 324 324 324 325 327 328 325 324 325
322 322 322 326 325 324 325 324 323 326 326 320 320 324 325 324 324 325 325 323 322 321 321 322 322 321 320 320 319 319 319 318 318 318 317 317 317 317 317 317 315 314 315 315 316 316 315 315 315 315 315 315 314 314 314 314 314 314 315 315 314 315 316 316 316 316 317 318 318 319 319 319 320 319 318 317 316 316 315 315 316 316 317 317 317 319 321 322 323 323 323 325 327 328 326 325 324
321 321 323 328 327 325 327 326 326 327 324 318 318 324 326 324 322 322 322 322 321 319 319 319 319 319 319 318 318 319 318 318 318 317 317 316 316 315 315 315 314 314 314 314 315 315 315 315 315 314 315 314 314 313 313 314 314 314 315 315 315 316 316 316 315 315 315 315 316 317 318 318 319 318 318 318 317 317 316 315 315 315 315 316 317 319 321 322 323 323 324 326 328 327 325 325 325
321 322 323 326 327 327 328 327 328 329 323 317 319 325 328 326 324 321 319 319 319 318 319 319 318 318 317 317 317 317 317 317 316 315 314 314 313 314 314 313 313 313 313 313 314 314 314 314 314 314 314 313 313 313 312 313 313 313 314 314 315 315 316 315 315 315 315 315 315 317 318 318 318 317 317 318 318 317 316 315 315 315 315 316 318 321 322 323 323 323 325 326 328 326 324 325 325
322 322 323 325 326 326 326 324 324 326 324 320 321 326 326 323 321 318 317 318 316 316 317 317 318 317 316 317 316 316 316 315 314 314 314 314 314 313 313 313 313 313 313 313 313 313 313 313 313 313 313 313 313 313 313 313 313 312 312 313 313 314 315 315 315 315 316 317 318 319 318 318 318 317 317 317 316 316 315 315 315 315 315 316 318 322 324 324 324 324 324 324 324 324 324 325 323
321 322 322 323 324 323 324 323 319 321 326 324 321 323 322 319 320 320 319 320 317 316 316 316 317 317 316 316 315 315 314 314 314 315 315 314 314 313 312 312 313 313 313 314 313 313 313 313 313 313 313 313 313 313 313 313 313 312 312 312 312 313 314 314 314 314 316 317 318 318 317 316 316 316 317 317 316 316 315 315 315 315 316 317 320 323 325 325 325 325 324 322 321 321 322 323 322
321 323 321 322 324 322 320 322 322 322 325 325 323 323 322 321 324 323 320 320 318 317 317 315 315 316 316 315 315 314 314 314 314 315 315 314 314 313 313 312 312 313 313 313 313 313 313 313 312 313 313 313 313 312 312 312 312 312 312 311 311 312 312 312 312 313 313 314 314 314 315 315 315 316 317 317 317 316 315 315 315 315 316 318 321 325 327 327 327 326 325 324 322 322 322 321 322
319 321 320 321 325 323 320 321 325 325 324 325 326 324 323 322 322 322 321 320 319 318 317 316 316 315 315 315 315 314 314 315 314 314 314 314 314 313 313 313 313 313 313 312 313 313 312 312 312 312 312 312 312 312 312 312 312 312 312 311 311 311 311 311 311 311 311 311 311 312 314 315 316 317 318 318 318 318 317 316 315 316 316 318 321 325 327 328 328 328 328 327 325 325 325 324 324
316 318 320 321 322 323 322 321 324 326 324 326 327 324 326 324 319 321 323 320 318 317 318 319 316 314 315 315 315 315 315 316 315 315 314 314 314 313 313 313 313 312 312 312 312 312 312 312 312 312 312 312 312 312 312 312 312 312 312 312 312 312 311 311 311 311 310 310 311 312 313 315 317 319 320 320 320 319 318 317 316 317 318 319 321 324 327 329 328 328 328 327 326 325 324 323 323
316 318 321 320 320 321 322 320 322 323 323 325 325 324 328 325 318 320 321 319 319 318 320 322 317 315 316 316 316 316 317 316 316 315 314 313 313 313 313 313 312 312 312 312 312 312 312 312 312 312 312 312 312 312 312 312 312 312 312 312 312 312 312 312 312 311 311 311 311 311 313 315 318 322 323 323 323 322 321 320 318 318 320 322 323 324 327 328 328 327 326 326 326 325 325 324 324
317 318 320 319 319 320 322 322 321 320 321 324 323 324 329 325 318 319 319 320 320 318 319 321 318 316 317 316 315 315 315 315 315 314 314 313 313 313 312 312 312 312 312 312 312 312 312 312 312 312 312 312 312 312 312 312 311 311 311 311 311 311 311 311 311 312 311 312 312 312 313 315 318 321 323 324 324 323 322 321 321 321 322 324 325 326 327 327 328 327 326 326 326 327 326 325 325
Wind_Speed
7 8 9 10 11 14 10 3 4 2 3 1 4 4 3 3 3 4 5 3 3 7 6 7 7 10 6 2 8 14 14 8 4 2 5 14 18 15 14 13 12 13 14 16 13 12 11 10 12 11 10 7 5 3 2 2 3 4 4 6 6 6 7 8 7 7 7 7 7 7 7 7 9 9 10 11 12 13 15 17 18 18 18 16 14 12 12 12 13 14 14 14 14 14 14 14 14
7 8 9 10 11 11 7 3 2 3 3 2 5 4 4 1 1 5 5 4 7 8 6 7 7 8 5 3 7 12 15 13 12 14 16 21 20 14 14 12 14 13 13 16 14 12 11 10 10 9 8 6 4 2 1 1 2 3 4 4 4 5 6 7 7 6 7 7 7 7 7 8 9 10 11 13 15 17 18 18 18 18 17 15 13 12 12 12 13 14 14 14 14 14 14 14 15
5 7 8 10 12 10 8 4 2 4 2 4 4 2 4 3 4 7 8 10 12 10 7 7 5 5 4 3 7 9 9 10 15 19 22 21 20 16 12 13 14 11 12 15 14 12 11 10 9 8 7 5 4 2 1 0 2 2 3 3 3 5 6 7 6 6 7 7 7 8 9 10 10 11 12 14 16 17 18 17 16 16 15 14 12 11 10 11 13 14 14 14 14 14 14 15 15
4 6 7 8 10 8 4 2 3 4 3 3 3 2 3 6 8 9 11 12 11 9 7 5 3 3 6 5 7 11 10 9 10 16 22 18 18 18 14 15 14 12 13 12 14 13 11 11 9 7 6 5 4 2 2 1 1 2 2 2 5 6 6 7 7 7 8 8 8 8 9 10 11 12 12 14 16 17 17 16 15 14 13 13 12 10 10 11 14 14 15 15 15 15 15 15 15
3 5 6 7 7 5 2 2 4 2 4 2 3 3 3 8 9 9 11 12 9 7 5 4 2 3 4 7 7 7 8 10 10 14 20 16 16 19 16 16 14 13 16 11 12 14 12 11 10 8 7 6 5 3 2 1 2 2 2 2 5 6 6 7 8 8 8 9 8 9 10 11 12 13 13 15 17 17 16 15 13 12 11 11 10 10 10 12 14 14 15 15 15 15 15 15 14
3 4 6 7 7 5 2 3 3 2 4 4 4 3 5 8 11 11 12 11 7 5 3 2 2 5 6 8 9 8 7 8 11 13 17 17 16 18 17 16 15 14 17 14 11 13 14 12 11 9 7 6 5 4 2 2 3 3 3 3 4 5 5 6 7 8 8 9 10 10 11 12 13 14 14 16 17 16 15 13 11 10 10 9 8 9 10 12 13 14 15 15 15 15 15 14 14
2 5 5 5 6 4 2 4 3 4 3 5 4 3 6 10 13 12 10 8 5 4 3 1 2 3 6 8 8 9 8 8 11 10 11 17 17 18 17 15 15 14 16 14 10 11 14 13 12 10 8 6 5 4 3 2 3 3 4 3 3 5 5 5 8 9 9 10 11 11 12 13 14 14 14 14 15 15 14 12 10 9 9 9 9 10 11 12 13 14 14 14 15 14 14 14 14
1 5 5 3 3 2 3 5 2 5 2 3 6 5 7 12 13 10 7 6 4 5 6 2 2 2 4 8 7 7 9 8 13 12 10 16 18 18 17 14 15 13 14 13 9 9 11 12 12 10 9 7 6 5 4 3 3 4 4 4 4 5 6 7 8 9 9 11 11 11 11 12 13 14 14 14 13 13 13 12 10 9 10 10 11 11 11 12 13 14 14 14 14 14 14 14 14
2 6 4 2 3 2 4 3 2 5 3 3 5 5 8 10 11 9 6 7 7 7 8 6 4 2 4 12 12 8 11 8 13 14 11 16 19 19 17 14 14 13 13 11 7 8 9 10 11 10 9 8 7 5 4 3 4 4 4 5 6 7 9 9 9 9 10 11 12 11 11 12 14 15 15 14 13 13 13 12 11 10 11 12 12 11 12 13 13 13 13 13 13 13 13 13 13
4 6 3 2 2 3 5 2 3 4 5 4 6 6 7 7 8 8 7 8 7 7 8 6 3 2 2 13 12 8 12 9 11 15 14 17 20 18 16 14 13 13 11 8 7 8 8 9 9 9 8 8 7 6 5 4 5 4 5 7 8 9 10 10 10 10 10 11 12 11 11 13 14 14 15 14 12 12 12 12 11 11 11 12 11 11 11 12 12 12 12 12 12 12 12 12 12
4 6 2 2 3 4 4 1 4 4 6 5 7 8 7 7 5 6 8 8 7 7 8 6 3 4 2 11 10 8 13 11 11 17 17 18 19 16 15 15 13 12 9 8 8 8 8 8 8 8 8 7 7 6 5 5 7 5 7 9 10 10 9 10 10 10 11 11 11 11 11 13 14 14 15 15 13 12 12 12 11 11 12 11 11 10 11 11 11 11 11 11 11 11 11 11 11
3 3 2 2 4 3 2 1 4 5 6 5 5 7 8 7 4 4 6 8 8 8 8 6 3 6 5 8 8 10 14 13 13 16 17 18 19 15 15 16 14 12 9 8 9 8 8 8 8 8 7 8 8 7 6 7 8 7 8 8 9 10 9 9 10 11 12 12 11 12 12 13 14 14 15 15 14 13 12 12 12 12 12 11 11 10 10 10 10 10 9 10 9 10 10 10 10
3 4 2 2 5 3 2 2 3 4 3 4 6 7 8 8 6 4 5 7 8 6 7 6 3 3 3 9 10 12 15 16 16 16 16 17 18 14 13 15 15 12 10 8 10 9 8 8 8 8 8 9 9 8 7 8 9 9 8 6 7 10 10 10 12 13 12 12 12 13 13 13 14 14 14 14 14 14 13 13 12 12 11 10 10 9 9 9 8 8 8 8 8 9 9 9 9
3 6 3 1 5 3 3 3 2 2 1 3 6 8 9 7 6 3 4 5 6 6 8 7 2 1 5 10 10 13 18 18 16 18 17 17 18 13 10 14 15 13 11 9 9 10 9 9 9 9 9 10 10 9 9 10 10 9 7 6 7 9 10 11 12 12 12 12 13 14 15 15 15 15 14 14 14 14 13 12 12 11 10 10 9 8 8 7 7 7 7 7 7 8 8 8 8
3 5 3 1 4 3 1 1 1 1 2 3 3 8 9 4 4 2 1 4 6 9 9 4 2 0 2 5 10 17 22 20 17 18 18 18 19 15 10 14 15 14 13 10 9 10 9 9 11 12 10 11 11 9 10 11 10 9 8 8 9 10 11 12 13 13 13 14 14 14 15 15 15 15 15 14 14 14 13 12 11 10 9 9 8 8 7 6 6 6 6 6 6 7 7 8 8
3 2 1 1 3 4 1 2 1 1 2 3 2 7 8 4 6 3 2 6 6 8 6 2 2 2 5 8 12 19 23 21 19 20 19 19 20 18 14 13 15 15 14 12 10 10 10 9 10 13 11 10 11 10 11 11 10 10 10 9 10 11 12 13 14 13 14 14 14 14 14 14 15 15 14 14 14 13 12 11 10 10 9 8 8 7 6 6 5 5 5 5 6 6 6 6 6
4 0 1 2 3 3 2 3 2 3 3 3 3 6 6 5 6 2 1 5 4 6 6 4 5 4 6 10 11 16 23 21 19 22 21 20 20 18 16 13 13 16 16 13 12 11 11 10 9 11 12 10 10 12 12 11 11 11 10 11 11 12 14 14 14 14 15 15 15 14 13 14 14 14 14 13 13 12 11 10 9 9 8 7 7 6 5 5 4 4 4 4 5 5 5 5 5
3 1 2 3 3 4 2 1 2 7 6 4 5 4 2 5 7 4 3 4 3 6 7 6 5 5 7 11 11 14 21 20 18 22 21 21 19 18 18 16 13 15 17 15 14 13 12 12 10 10 12 12 11 12 13 13 12 12 12 12 12 14 15 15 15 15 15 15 15 14 13 13 13 13 12 11 11 10 10 9 8 7 6 6 5 5 4 4 3 3 3 4 3 4 4 3 5
4 2 2 4 4 2 2 5 6 5 8 8 7 3 1 3 7 6 3 6 8 6 6 9 7 7 9 13 13 13 17 18 18 19 21 21 19 19 19 18 15 16 18 16 15 14 13 13 12 10 11 13 13 13 14 15 14 14 13 13 14 15 16 17 16 15 15 16 16 15 14 12 12 12 11 10 9 9 8 7 7 6 5 4 4 3 3 3 2 3 3 3 3 4 3 4 6
7 4 2 4 5 1 5 7 9 7 7 9 8 4 2 3 4 6 4 5 10 9 9 12 12 11 12 15 15 13 16 18 18 18 20 21 18 17 18 19 18 17 18 17 15 15 13 13 13 12 11 13 15 14 14 16 16 16 15 15 15 15 17 17 17 16 16 16 16 15 14 11 11 11 10 10 9 8 7 6 5 4 4 3 2 2 2 1 2 2 2 3 3 3 4 6 7
7 6 4 3 6 2 6 8 9 7 5 8 7 5 4 2 2 4 4 4 5 8 11 14 15 17 16 16 17 14 15 18 18 18 19 20 19 17 17 18 19 18 18 17 16 15 14 13 13 13 13 13 15 16 15 16 18 17 16 16 16 16 17 18 18 17 17 17 16 15 12 9 11 12 11 10 8 7 6 5 5 4 3 2 1 1 0 1 1 2 2 3 3 4 5 5 3
6 6 9 4 8 3 8 8 7 6 5 6 5 3 3 4 3 4 6 4 1 2 5 8 12 17 16 15 18 16 16 17 18 19 21 20 20 19 17 17 18 18 17 18 19 17 15 14 13 13 14 14 14 15 16 16 19 18 17 17 17 17 17 18 18 19 18 18 18 15 12 12 12 12 12 10 9 8 6 6 5 4 3 2 1 1 1 2 2 3 3 4 5 6 6 5 3
5 5 10 7 6 2 7 5 5 5 4 4 3 2 2 3 4 6 9 9 1 3 2 3 3 9 13 13 16 17 16 17 17 18 21 21 21 21 19 19 19 19 19 19 20 19 17 16 15 14 13 14 13 14 16 16 18 19 18 18 18 18 18 19 19 19 19 19 19 16 14 15 15 13 13 11 9 8 7 7 6 5 4 3 3 3 2 3 5 5 5 6 6 6 6 7 5
8 5 10 11 10 4 6 5 5 5 3 2 2 2 2 4 4 3 8 10 6 6 7 4 1 6 11 13 14 15 15 16 16 16 18 20 21 21 21 20 18 18 20 20 20 20 19 18 17 16 14 14 13 13 15 16 17 18 17 18 18 18 18 19 19 19 19 19 19 17 15 17 16 13 13 12 10 8 8 7 7 6 5 4 4 5 5 5 7 7 7 7 7 6 5 7 7
9 7 10 10 10 7 7 6 6 6 4 2 2 3 5 6 4 3 7 10 8 9 10 7 4 9 12 13 13 15 16 16 16 17 18 20 21 21 23 21 19 19 21 20 20 21 21 20 19 17 16 14 14 15 15 16 17 17 17 17 18 18 18 19 19 19 19 18 18 17 14 16 17 14 13 12 11 10 9 8 7 6 6 6 6 6 7 7 8 9 9 8 6 5 4 6 7
9 13 13 7 7 7 8 8 7 7 6 5 4 5 8 8 6 6 13 15 11 10 11 9 7 12 14 13 13 14 17 18 18 19 18 19 21 23 24 23 22 21 21 20 21 23 22 23 21 20 18 16 16 16 16 17 16 17 17 17 18 18 18 17 18 18 18 18 18 17 15 15 16 15 14 13 12 11 11 10 9 8 8 8 8 9 9 9 9 9 9 8 5 3 3 6 8
5 16 17 9 9 10 10 8 9 8 6 7 5 6 7 7 5 4 8 12 14 13 11 10 9 12 16 15 14 14 16 18 18 19 19 20 23 25 25 24 24 23 21 21 22 24 24 24 23 22 20 19 18 17 18 17 16 17 17 18 18 18 18 18 19 18 18 18 17 17 16 16 15 15 15 14 14 13 13 11 10 11 10 10 11 11 12 11 10 8 9 10 8 8 8 9 10
6 11 12 8 9 10 10 9 10 9 5 8 6 5 5 6 5 6 5 6 13 14 11 11 10 12 15 15 16 15 16 18 18 20 20 22 23 24 24 23 24 24 22 22 22 23 24 24 24 24 23 22 21 19 19 18 18 18 17 18 18 18 18 19 20 19 19 18 18 18 17 17 16 16 16 15 15 14 14 13 12 13 12 12 12 13 14 14 13 11 13 13 12 11 11 10 9
5 5 5 4 6 7 10 11 11 10 6 8 5 4 6 6 7 14 14 10 12 12 10 11 11 12 15 16 17 17 17 18 20 22 21 20 22 23 22 21 22 24 24 24 23 23 23 23 24 25 25 25 23 22 20 20 19 18 18 19 19 18 19 20 20 20 19 19 19 19 17 17 17 17 17 16 16 15 15 14 14 14 13 13 14 15 16 15 15 15 15 14 11 10 8 7 5
3 3 3 3 4 6 11 13 12 10 8 12 7 2 6 7 14 23 23 19 16 14 12 13 13 13 16 17 18 20 20 20 22 22 20 21 22 22 21 21 22 23 23 24 25 24 23 23 23 25 28 27 25 24 23 22 21 20 19 20 20 19 20 20 20 20 20 19 19 19 18 18 18 18 18 18 17 16 16 16 15 15 15 14 16 19 18 17 16 15 14 12 9 8 7 6 6
4 4 4 3 4 5 12 17 14 9 9 15 9 3 6 4 8 19 22 21 18 16 15 15 15 15 17 19 20 21 22 23 24 23 21 22 22 21 21 22 23 24 24 25 25 25 25 25 24 25 28 29 28 26 26 25 24 23 21 21 21 21 21 20 21 21 21 21 21 20 19 19 19 19 20 19 18 17 17 18 17 17 16 16 18 20 20 18 17 15 12 10 9 8 7 7 8
4 5 4 4 5 4 7 16 17 10 7 14 10 3 7 6 7 11 16 19 16 15 16 17 18 17 18 20 21 22 22 23 23 24 23 23 23 22 22 23 24 25 25 25 25 25 25 26 26 25 27 29 29 28 28 28 26 25 24 22 22 23 22 22 22 22 22 22 22 22 21 21 21 21 21 21 20 18 19 20 19 18 18 19 20 21 20 19 17 15 13 12 10 9 9 8 9
4 5 3 4 7 4 2 11 19 15 7 10 10 4 5 5 12 15 14 17 16 14 15 17 18 19 20 21 22 23 22 21 22 24 25 25 25 24 24 24 24 25 25 25 25 25 25 25 26 26 26 27 29 30 31 31 29 28 27 26 25 25 25 24 23 23 23 23 23 23 23 22 22 22 22 22 21 20 20 21 21 20 20 20 21 20 20 19 17 15 14 13 11 9 9 9 9
5 5 4 5 7 6 3 4 13 15 9 8 10 8 9 3 6 12 15 16 15 15 16 16 17 18 20 21 21 22 23 23 23 24 24 24 25 25 25 25 24 24 24 25 25 25 25 25 26 26 25 25 27 30 32 32 32 31 30 29 29 28 27 26 26 26 26 26 26 26 25 24 24 24 24 24 24 23 22 22 22 22 21 21 21 21 20 19 17 15 14 12 11 10 9 9 9
7 7 6 5 6 8 7 4 8 14 10 9 9 9 14 8 4 10 16 17 16 17 18 18 19 20 20 20 22 22 24 25 25 24 23 24 24 24 25 25 25 25 25 25 25 25 25 25 26 26 25 24 25 28 31 33 33 33 33 32 32 32 31 30 30 29 29 29 29 28 28 27 27 27 27 26 26 25 25 24 23 23 23 23 22 22 21 20 19 17 15 14 13 12 11 10 10
10 9 6 6 6 6 6 5 8 13 9 8 10 10 11 10 9 10 15 19 20 21 21 20 21 22 22 22 23 24 25 26 26 26 25 24 24 24 25 25 24 25 26 26 26 27 27 26 28 27 26 25 25 26 29 33 35 36 36 35 35 35 34 34 33 32 32 32 32 32 32 31 30 29 29 29 28 27 27 26 26 24 24 25 24 24 23 22 21 19 17 15 14 14 13 11 10
8 8 8 7 6 5 4 5 8 11 8 7 10 10 10 9 8 10 16 19 20 21 20 21 21 21 23 23 24 25 25 25 23 24 26 25 25 25 25 24 24 24 26 27 28 28 28 27 28 29 27 26 26 27 29 32 35 37 38 38 37 37 36 36 35 35 34 34 34 34 35 34 33 31 30 30 30 29 29 28 28 27 26 27 26 25 25 23 22 20 18 16 15 15 15 12 10
4 5 7 7 7 4 2 5 6 6 3 5 8 9 11 10 7 11 16 15 17 20 20 21 23 23 23 24 25 24 23 23 21 22 24 25 26 26 25 25 25 25 26 27 28 28 27 27 28 29 28 27 27 28 29 31 33 34 36 37 37 37 37 37 36 35 35 35 35 36 37 36 35 33 32 31 31 31 31 30 30 30 29 29 28 26 26 25 24 22 20 18 17 16 15 13 13
3 3 4 5 6 3 4 6 5 3 0 3 4 7 9 8 7 10 13 13 15 21 23 24 26 26 27 26 26 26 25 24 23 23 24 26 27 27 26 26 25 26 26 27 27 27 27 27 28 29 30 29 28 28 29 31 31 32 33 34 34 35 36 36 36 35 34 34 35 36 37 37 36 36 34 33 32 32 33 33 32 32 31 30 29 28 28 27 25 24 22 20 19 18 16 16 17
3 2 4 3 4 4 2 4 5 4 2 3 3 5 7 7 7 8 13 18 19 22 27 28 28 29 31 31 29 29 28 28 27 26 26 26 26 26 26 25 25 26 27 28 28 28 29 28 28 29 30 29 29 29 30 30 30 30 31 31 32 33 34 34 35 36 36 36 36 36 38 38 38 37 36 35 35 35 35 35 34 33 33 32 31 31 30 29 27 25 23 21 20 20 19 19 19
5 5 6 3 4 3 3 4 5 3 3 3 2 4 6 7 8 9 13 19 22 24 27 28 31 32 32 32 32 31 30 30 30 30 30 29 28 27 27 25 24 25 27 28 29 30 29 29 28 29 30 30 30 30 31 30 30 30 30 30 30 32 33 34 36 37 38 37 37 37 38 38 39 38 36 36 36 36 37 37 36 35 34 33 33 33 32 31 28 27 24 22 22 22 21 21 20
5 7 7 5 6 3 7 6 3 0 3 4 3 2 5 4 7 9 8 10 16 21 23 25 30 31 29 30 32 33 32 31 32 32 32 32 30 29 28 27 26 25 25 26 28 29 30 29 29 30 30 31 31 31 31 32 32 31 31 32 32 33 34 35 36 37 38 37 37 37 37 38 39 38 37 36 36 37 38 38 37 37 36 35 35 35 34 32 30 29 26 24 23 23 22 22 23
4 6 9 8 4 2 6 6 3 1 3 3 4 3 4 5 7 7 5 5 10 13 16 22 27 28 28 30 32 33 34 33 32 32 32 33 32 31 30 30 30 28 25 24 25 26 27 29 30 30 31 32 32 32 33 33 33 34 34 34 34 34 35 36 35 36 36 36 36 36 37 37 38 38 38 37 36 37 38 38 38 38 37 37 37 36 36 34 33 31 28 26 25 24 24 25 25
3 3 8 9 4 3 4 5 3 2 0 1 3 2 2 6 8 8 7 9 11 10 11 16 23 27 28 31 33 35 37 36 35 34 33 32 32 32 32 32 31 29 27 25 26 26 26 27 28 29 30 31 32 33 33 34 34 35 35 35 35 36 36 36 35 35 35 35 35 36 36 36 37 37 37 37 36 37 38 38 38 38 38 38 37 37 37 35 34 32 30 28 27 26 26 25 25
3 3 5 7 5 3 4 3 3 0 3 2 4 3 2 6 6 6 6 10 14 14 12 10 16 25 28 31 35 36 36 37 38 38 38 36 35 35 35 34 32 31 29 28 27 26 26 27 27 28 29 29 31 32 33 34 34 35 35 36 36 36 37 36 35 35 34 34 35 36 36 36 36 36 36 36 36 37 38 39 38 39 39 38 37 37 36 35 35 33 32 30 29 29 27 25 25
3 2 5 6 3 4 4 2 1 1 1 4 5 5 3 5 5 5 5 9 13 12 9 8 14 24 29 33 34 33 32 32 34 37 40 40 39 38 37 36 34 32 31 30 28 26 25 26 27 27 28 29 30 32 33 34 34 35 36 36 36 36 37 37 36 35 35 35 36 36 37 37 36 36 36 35 35 35 36 38 38 39 39 37 36 36 36 36 35 34 33 32 31 31 29 27 26
6 5 7 7 4 5 3 1 4 2 3 5 8 9 5 3 5 6 5 7 9 8 5 7 13 21 28 32 32 31 29 29 30 31 33 35 36 37 36 35 34 33 32 32 31 28 26 26 26 27 27 29 30 31 33 33 34 35 36 37 36 36 37 37 36 36 36 36 37 37 36 36 37 37 36 36 35 35 35 36 37 38 38 37 36 35 36 37 36 35 34 33 32 32 30 28 28
9 5 6 5 3 4 2 2 3 1 4 4 8 11 9 6 5 5 7 7 8 7 6 6 9 13 18 23 26 28 27 27 27 26 26 28 30 32 34 34 33 33 33 33 33 31 29 27 27 27 27 28 30 32 33 34 35 36 36 37 38 37 37 37 37 37 37 37 37 37 36 36 36 37 37 37 36 35 34 34 36 37 38 38 37 35 35 36 36 36 35 34 33 34 32 30 30
6 5 7 5 2 2 1 2 1 4 4 2 4 6 7 8 7 7 10 7 7 8 8 7 7 8 10 11 14 17 19 20 21 21 21 24 27 28 30 30 30 31 32 33 33 32 32 30 28 28 27 28 30 32 34 34 36 36 37 38 39 38 38 38 38 38 38 38 38 37 37 37 36 37 38 38 37 35 34 34 34 36 37 37 36 35 34 35 35 36 36 35 35 35 35 34 33
7 7 8 6 4 3 4 4 2 4 3 2 1 1 2 5 4 10 16 16 13 11 12 13 10 8 8 5 7 9 12 14 16 17 19 20 23 24 24 25 26 27 28 30 31 32 31 30 29 28 27 27 29 31 33 35 36 37 37 38 39 39 40 39 39 39 39 39 38 38 38 38 38 38 39 38 37 35 34 33 33 33 35 35 34 33 33 33 34 36 37 37 38 37 37 37 35
7 5 5 6 5 5 5 4 3 3 0 2 1 2 4 3 2 9 15 18 17 13 12 16 15 12 9 7 8 10 12 13 13 13 15 16 17 17 17 18 19 21 22 24 26 28 28 28 27 27 25 25 27 28 30 32 34 35 36 38 38 39 40 40 40 40 39 39 39 39 39 38 38 39 38 37 36 35 35 34 33 33 33 33 32 32 32 33 33 35 37 39 40 39 39 39 37
5 3 5 6 5 3 2 2 3 4 2 1 3 3 4 4 5 7 7 9 12 12 11 14 17 15 12 12 12 12 14 16 16 14 13 13 14 14 14 14 16 17 19 20 22 24 25 25 25 24 23 22 23 24 25 26 28 30 33 35 37 39 40 40 40 40 40 40 39 40 40 39 38 38 37 36 34 34 34 32 31 32 32 32 32 32 33 33 33 34 37 39 40 39 40 39 38
4 5 7 5 2 4 3 1 0 2 2 3 4 4 4 2 7 9 9 8 8 9 10 13 16 14 12 14 14 15 15 16 17 16 14 14 14 13 13 13 15 16 18 20 23 24 25 25 25 24 23 23 23 24 25 25 26 28 30 32 35 36 38 38 39 39 38 38 38 38 38 38 38 38 37 36 35 33 32 31 29 30 31 31 32 33 33 33 33 34 36 37 37 37 38 38 38
6 7 7 4 4 3 2 1 0 1 3 3 4 6 4 3 5 6 9 10 8 8 9 10 12 13 14 16 16 16 14 11 12 14 14 14 13 13 13 13 14 16 18 20 24 27 28 27 26 25 25 25 25 25 26 26 27 27 28 29 31 32 33 35 36 36 36 36 36 36 36 37 38 38 38 36 35 34 33 31 28 27 29 30 31 33 34 34 34 34 35 35 35 35 37 37 38
4 5 7 5 0 2 4 3 2 4 4 4 4 7 5 6 5 2 6 10 8 8 8 8 10 13 17 19 18 17 15 12 12 13 14 14 13 14 14 14 16 18 20 20 22 26 29 28 26 24 24 23 24 25 24 25 25 24 24 24 25 26 27 29 30 31 32 33 34 34 35 36 37 37 37 36 35 35 33 32 29 26 25 27 30 33 34 34 34 34 34 34 35 37 39 39 39
1 3 6 5 2 3 5 3 2 3 4 4 3 3 4 7 7 6 8 10 10 10 8 8 10 16 20 21 19 18 16 15 15 13 13 14 15 16 15 16 16 17 17 16 16 19 23 25 24 22 21 21 21 21 20 20 20 20 19 19 19 20 21 22 24 26 28 30 31 32 34 35 34 35 35 35 35 35 34 32 30 26 24 25 28 30 33 33 33 34 34 34 35 37 39 40 39
4 6 9 6 3 2 1 3 2 2 3 3 4 4 5 5 6 9 11 11 11 11 8 7 11 16 18 17 15 14 14 15 15 13 13 15 17 17 16 16 15 13 13 12 11 13 16 19 19 17 16 16 16 16 16 16 16 16 16 16 16 17 18 19 21 23 26 27 29 30 32 33 33 33 33 34 34 35 34 33 30 26 24 25 27 29 31 32 33 34 34 34 34 34 36 37 36
8 7 8 8 6 3 2 4 5 3 3 3 3 5 7 5 3 7 9 8 9 11 9 7 12 15 14 12 12 11 12 13 14 14 16 16 17 16 15 14 13 11 12 11 10 10 12 13 13 12 11 11 12 12 12 13 13 13 14 14 15 16 17 19 20 22 24 26 27 29 29 31 31 31 30 31 33 34 34 32 29 27 26 26 27 28 30 32 34 34 34 34 34 34 35 35 35
Wind_Direction
319 323 333 336 335 329 326 306 274 245 210 250 87 95 58 48 96 115 101 146 110 68 44 43 44 33 26 7 87 78 47 45 61 60 125 135 125 123 175 194 170 167 159 154 157 152 149 142 140 141 144 150 151 149 107 70 53 53 52 54 65 88 98 106 104 105 110 110 114 118 113 103 101 99 92 92 92 94 94 93 91 92 93 95 97 98 96 91 91 92 92 91 89 88 87 86 84
316 323 333 333 332 326 319 304 274 269 219 104 62 84 109 109 126 123 106 89 82 86 80 66 56 37 48 100 94 78 53 60 87 98 118 132 131 146 184 175 159 164 158 158 159 156 158 151 151 153 153 160 160 158 120 51 50 48 45 56 72 91 103 110 110 109 111 109 111 115 115 111 106 98 90 94 96 96 96 94 93 93 94 98 99 98 94 91 92 92 92 91 90 89 87 85 83
313 321 336 338 327 312 298 299 239 276 277 98 71 106 135 126 86 80 79 81 88 96 91 77 75 31 26 90 64 73 77 74 94 113 125 135 140 151 171 156 152 156 155 162 161 162 164 161 163 162 163 171 174 183 213 43 24 24 34 59 84 103 112 111 116 116 111 110 110 110 115 116 107 98 96 101 103 102 100 98 97 100 101 100 100 98 91 88 89 90 90 90 90 89 87 84 83
315 318 335 338 316 296 281 284 242 291 354 85 90 119 128 105 87 75 81 88 98 105 105 106 105 32 6 19 49 79 96 82 97 129 131 138 148 150 158 151 151 149 147 162 164 164 167 166 170 168 168 179 189 208 230 176 59 50 59 81 98 106 109 107 112 110 105 105 106 105 110 113 107 101 104 111 110 110 110 105 103 107 111 108 102 96 92 89 88 89 89 89 89 88 86 84 83
313 315 328 330 308 297 308 305 277 332 11 25 89 105 91 96 98 91 91 93 107 109 119 149 125 100 48 26 36 74 99 98 106 119 126 146 154 149 161 154 152 146 141 162 171 166 169 166 168 167 158 163 174 190 205 134 112 102 105 118 105 98 96 95 101 104 100 100 104 104 106 112 110 104 108 118 117 115 115 111 109 113 119 116 105 95 93 92 90 91 90 89 88 87 86 85 84
306 307 309 302 285 298 313 266 279 78 15 356 82 100 83 93 104 105 100 95 103 106 133 166 97 109 94 63 67 91 109 111 119 123 136 156 156 152 164 155 151 150 147 171 183 171 176 170 170 173 164 162 165 181 189 140 134 129 141 150 122 107 95 90 101 105 103 107 107 102 106 112 113 107 109 121 121 116 112 109 110 116 124 125 114 102 97 96 95 93 91 90 88 88 87 86 87
284 300 291 280 264 270 264 258 292 82 10 354 61 87 92 98 109 117 115 109 102 124 166 111 97 115 111 109 91 94 106 121 140 151 161 161 161 156 154 149 152 156 155 180 187 168 182 180 179 186 187 188 180 193 198 167 145 140 156 165 152 132 114 107 111 107 108 115 110 105 109 113 114 111 111 120 125 121 116 115 117 118 120 124 121 110 105 101 97 95 92 91 90 89 88 87 88
350 302 298 299 265 221 246 270 329 81 29 15 51 40 85 111 122 130 134 142 147 157 168 147 202 230 133 124 103 109 112 132 162 165 177 169 162 148 142 151 156 158 161 183 184 160 181 186 188 194 198 202 199 204 198 182 153 151 165 166 159 139 129 124 119 114 116 120 115 114 116 115 117 116 114 118 126 129 125 122 119 116 117 119 120 113 108 103 98 96 94 92 91 89 88 87 87
326 285 291 286 276 257 252 254 107 100 117 97 79 54 81 116 134 137 130 127 140 151 156 168 208 232 111 107 104 126 120 138 172 162 177 176 156 137 141 158 159 163 169 182 180 162 177 184 189 194 198 205 204 203 198 187 154 151 152 155 150 134 134 133 131 127 123 126 124 124 125 123 125 122 120 122 127 133 131 125 118 113 117 117 114 110 104 101 98 96 94 92 91 89 89 88 87
277 251 283 298 277 271 250 213 110 105 112 93 101 119 105 125 146 145 133 113 130 136 135 157 190 261 95 108 113 132 133 149 170 160 172 170 148 134 145 163 166 170 176 175 167 169 174 176 182 186 193 202 200 187 184 180 153 134 127 145 150 141 139 138 137 135 133 135 132 130 131 132 133 130 128 129 132 134 134 130 124 116 114 113 110 107 104 101 99 96 94 92 91 90 89 87 86
263 227 254 308 265 256 268 99 120 117 115 105 100 124 133 143 156 154 138 113 127 120 124 162 174 231 172 109 120 138 143 154 155 154 165 160 141 136 153 166 172 174 178 168 158 169 170 172 178 180 188 188 183 170 163 162 150 130 127 143 150 148 146 142 140 137 137 139 137 135 134 136 138 136 132 133 133 131 132 129 123 116 114 114 112 109 106 102 99 96 95 94 91 89 86 84 83
285 240 203 253 263 266 318 52 127 113 122 141 110 122 141 148 161 173 146 120 136 133 143 182 164 193 187 103 128 147 147 156 153 156 163 150 134 146 168 169 172 174 173 165 156 163 169 173 174 175 179 168 166 165 160 154 148 140 140 148 153 152 149 147 146 138 137 142 142 138 135 135 135 135 133 133 132 128 129 126 121 119 119 118 116 112 107 103 100 97 94 92 88 86 83 82 80
282 294 248 228 273 293 330 344 91 99 126 130 110 130 147 154 174 180 151 134 145 150 147 160 159 191 134 102 134 151 152 161 161 165 164 143 137 158 179 171 172 170 165 167 158 157 169 175 174 170 164 159 159 162 162 157 153 148 142 143 152 154 151 148 145 140 140 141 136 132 130 128 128 129 128 127 124 123 125 125 123 122 121 118 116 111 107 103 100 96 91 88 84 82 79 78 76
258 317 319 255 283 295 311 324 66 111 142 89 100 137 151 158 178 174 148 132 119 125 131 148 200 229 116 115 147 155 154 168 171 170 165 146 144 158 181 178 174 167 162 169 159 156 173 179 174 166 163 159 156 161 164 160 156 153 147 138 144 152 154 149 142 140 137 132 128 127 127 126 125 124 122 120 117 119 121 122 122 122 120 118 115 110 108 104 98 93 88 84 80 78 74 71 70
237 327 323 275 295 287 262 273 8 77 103 84 102 141 145 144 155 146 93 79 88 122 131 162 227 269 78 108 169 166 157 174 180 171 168 158 153 155 178 187 176 166 162 168 163 158 173 182 174 166 170 166 156 161 166 164 159 156 155 145 145 152 156 150 144 142 138 134 132 130 129 128 127 125 123 120 118 119 120 120 121 121 119 117 114 112 109 102 97 91 84 80 76 73 69 66 63
218 319 316 273 277 273 201 184 283 23 81 78 92 143 137 130 146 136 56 83 111 138 122 129 139 90 52 87 163 167 160 177 179 171 171 167 165 164 174 183 176 168 162 169 171 165 171 184 181 170 173 172 164 166 169 171 166 163 161 153 154 157 158 154 151 150 145 142 138 135 135 133 131 129 127 124 123 122 122 123 122 121 121 119 117 115 108 102 97 89 83 75 71 68 67 65 59
208 282 237 258 244 251 187 189 189 131 118 100 131 163 145 134 157 182 148 121 132 139 122 133 152 146 92 106 155 160 162 177 175 174 175 173 174 178 181 177 177 174 167 171 176 175 176 183 189 177 175 175 173 174 174 178 176 173 169 163 164 163 162 162 159 157 152 148 143 141 141 139 137 134 132 129 128 128 128 128 127 127 125 122 119 113 108 103 94 85 79 69 67 64 62 62 60
192 159 205 229 228 247 223 152 117 129 125 121 138 176 188 134 157 190 186 177 168 139 152 172 165 168 128 127 154 158 170 179 176 179 181 179 180 187 189 176 179 184 175 174 179 182 183 184 191 189 181 175 177 183 182 184 185 182 178 173 172 171 168 167 166 162 158 154 149 147 147 146 145 141 138 136 135 135 135 134 133 132 129 127 121 114 108 100 91 80 69 62 61 55 53 53 58
208 225 224 231 222 246 36 53 55 98 115 117 118 133 273 108 147 173 190 196 185 168 176 177 168 170 148 148 164 168 180 184 182 185 185 188 188 191 191 177 180 191 185 182 183 186 189 188 190 196 192 181 180 190 188 186 190 188 185 182 178 176 174 172 171 168 165 161 157 156 155 155 156 150 144 143 146 144 144 144 141 140 137 132 123 115 107 100 87 70 58 51 45 34 26 28 45
216 225 229 241 251 53 65 68 71 75 101 113 108 118 145 94 133 166 203 209 188 192 189 177 173 179 171 168 178 179 182 187 188 189 190 195 195 197 196 183 183 191 194 192 189 190 194 192 191 197 201 192 186 193 194 187 191 192 189 186 182 181 179 177 176 173 172 168 167 165 160 166 167 156 153 158 159 158 159 157 153 155 150 141 130 112 102 93 64 53 39 29 25 6 7 22 36
201 210 225 275 312 347 93 90 93 91 92 103 112 137 152 137 150 171 212 237 199 206 201 195 192 193 191 181 188 191 183 188 192 191 194 198 196 198 203 196 191 191 196 196 195 198 198 199 197 199 206 203 196 197 199 191 191 195 192 188 185 184 183 184 180 177 179 175 174 172 168 185 184 165 167 176 174 173 175 175 176 176 171 168 161 124 23 3 8 359 1 357 341 347 2 15 18
208 219 241 289 331 345 96 94 106 117 112 113 139 165 137 145 199 213 228 241 126 114 167 188 196 198 201 190 193 199 191 194 197 195 197 200 196 195 202 207 200 193 200 202 201 203 202 205 204 204 208 209 209 203 201 197 192 194 195 191 188 188 187 189 187 184 186 182 180 179 176 195 197 176 177 187 188 188 189 195 198 195 199 211 234 254 292 312 326 327 325 328 330 338 341 330 306
219 232 237 255 296 339 97 118 127 124 142 154 169 156 139 176 233 228 229 237 196 40 80 138 155 189 200 194 195 203 202 205 206 204 205 207 205 198 200 212 211 198 204 209 207 207 205 208 209 210 212 212 217 209 204 203 195 195 198 194 193 192 189 193 195 191 193 190 187 189 184 192 200 186 184 196 200 199 201 210 217 216 218 230 260 278 300 310 311 313 317 325 328 323 326 333 330
202 230 225 230 246 212 125 154 149 142 169 173 168 161 207 225 249 226 223 239 250 284 278 247 178 167 190 197 202 210 214 216 217 216 212 212 215 208 203 213 219 205 206 214 212 210 209 211 212 214 218 214 216 215 209 208 203 202 203 198 196 197 195 197 201 198 199 197 193 199 193 189 199 196 191 201 207 210 216 223 232 238 244 254 265 281 294 302 302 306 312 308 303 311 331 339 336
199 236 235 218 222 197 143 159 162 161 183 193 205 211 238 235 237 257 240 244 251 260 263 258 218 173 193 210 211 212 216 221 220 218 214 215 218 213 206 210 219 213 213 219 218 216 213 214 217 216 220 217 215 218 217 215 211 210 209 204 201 203 204 202 206 205 204 203 199 205 203 192 199 204 200 205 212 217 225 232 241 247 255 263 268 279 286 290 290 293 298 293 295 318 324 312 309
196 220 237 197 187 199 154 159 168 166 188 185 200 228 237 230 226 259 255 249 243 236 241 251 226 184 195 215 216 212 214 219 219 218 218 216 215 214 212 210 214 220 224 224 222 221 218 216 218 219 221 221 218 218 222 222 217 215 213 210 208 209 210 210 212 212 210 208 205 207 209 204 206 210 209 210 216 221 228 232 240 245 250 260 267 272 277 279 281 286 291 293 297 294 271 272 283
204 214 227 198 187 204 172 178 184 172 192 185 198 246 226 200 201 251 258 243 226 218 226 236 228 199 197 210 218 217 214 219 221 220 220 217 214 214 217 216 215 221 225 224 221 222 222 220 219 220 222 221 221 220 223 226 222 218 216 214 214 213 213 215 217 217 217 215 212 211 213 215 216 218 219 217 221 226 231 234 239 246 251 257 266 271 273 272 270 268 270 275 278 277 267 261 270
255 219 216 199 195 202 183 203 196 171 191 192 202 284 244 180 188 226 221 204 206 207 214 219 216 205 202 205 214 219 216 219 220 219 222 222 219 218 221 223 220 218 220 224 226 223 224 225 222 221 223 224 223 223 224 227 227 221 219 217 217 216 215 218 220 220 221 220 219 218 216 220 223 225 228 228 228 232 236 238 240 247 253 259 266 269 270 272 266 255 256 266 273 277 276 273 273
248 210 190 194 205 213 200 212 200 176 184 178 163 310 252 208 212 229 227 212 203 201 204 212 214 207 205 204 210 217 217 216 218 220 226 229 228 227 229 231 227 222 220 222 228 229 227 227 226 223 224 226 226 226 226 228 230 227 223 222 220 218 218 220 223 223 224 224 224 224 222 223 226 230 234 236 237 239 242 244 244 249 256 262 267 268 268 273 270 262 261 264 270 278 289 300 296
182 187 207 205 207 228 209 209 203 190 184 168 152 277 238 226 227 230 229 219 209 208 207 212 220 213 206 206 210 217 216 214 219 225 227 229 232 233 234 234 231 229 224 220 225 231 231 228 228 224 224 227 228 228 227 227 230 231 228 227 226 223 222 223 225 226 226 226 228 229 227 226 229 232 236 240 242 244 247 249 251 254 259 263 268 271 273 275 275 272 271 273 275 279 289 298 294
182 187 218 215 220 233 201 197 195 190 176 162 154 244 244 255 238 228 223 214 204 207 211 211 217 217 210 207 210 217 220 218 223 228 229 230 233 235 235 233 232 231 227 224 225 230 233 232 231 228 226 228 229 229 229 228 229 232 230 230 231 229 226 225 227 228 229 229 230 231 230 229 230 233 237 241 242 243 247 252 256 259 263 264 264 270 274 275 276 276 275 278 275 266 268 270 271
201 197 200 207 229 260 195 185 188 188 167 162 155 244 249 245 251 230 207 200 199 206 214 213 214 216 214 212 211 215 221 223 225 227 230 233 234 237 237 233 232 233 231 230 228 228 232 235 235 233 230 231 230 228 229 231 230 231 232 231 233 234 231 229 229 230 231 232 232 233 232 232 232 234 237 240 241 243 247 253 258 261 264 265 265 268 272 274 277 278 278 276 271 264 261 253 252
210 214 202 197 205 248 211 177 189 185 154 174 183 229 256 225 239 233 199 193 199 208 217 218 216 216 214 215 217 217 219 222 226 228 230 233 234 237 238 236 235 236 236 234 231 229 232 237 238 236 235 236 234 229 227 230 231 231 232 232 233 235 234 232 231 232 233 234 235 234 233 232 233 235 237 240 244 245 247 253 258 261 261 262 264 267 271 275 279 280 278 274 271 266 258 251 248
187 208 225 221 201 207 198 160 189 182 162 192 198 229 249 232 222 215 198 198 202 207 219 223 223 222 217 215 217 220 220 220 225 229 229 231 233 233 235 237 237 238 238 237 235 233 234 238 241 242 239 238 237 232 227 228 231 232 234 234 234 236 236 235 234 234 234 236 237 237 236 234 234 237 239 242 246 248 250 252 255 259 260 259 262 266 270 273 277 278 273 267 267 265 260 260 254
181 194 212 232 215 206 196 154 178 183 186 206 195 224 243 247 235 202 197 204 211 219 226 232 234 232 224 216 216 221 223 223 227 232 232 232 232 231 233 236 236 236 237 237 237 236 234 235 240 244 243 240 238 234 228 227 229 232 234 234 235 236 237 236 236 235 236 237 238 240 240 238 236 238 241 243 247 249 251 252 253 255 256 259 261 263 267 270 275 277 273 267 263 265 267 265 259
193 196 200 226 229 218 200 144 163 182 189 209 209 227 241 240 237 218 210 211 217 226 231 236 238 234 226 219 219 223 225 226 228 232 237 236 233 233 235 237 237 236 236 237 237 237 236 234 236 241 244 243 241 235 229 226 227 229 232 233 235 237 237 237 237 237 237 238 240 241 242 242 240 239 241 244 247 249 251 252 252 251 253 256 259 261 265 270 275 277 275 268 259 260 265 259 256
200 202 199 218 233 229 205 151 163 178 184 206 215 234 246 241 238 232 225 218 217 223 225 229 231 229 226 221 220 223 227 231 231 231 235 237 236 237 237 237 238 237 236 236 236 237 239 237 237 240 243 243 242 239 234 231 229 229 230 233 235 237 238 239 239 239 238 239 241 243 245 245 244 243 242 244 246 248 250 251 251 251 251 254 257 261 265 269 272 274 271 264 255 254 258 257 253
213 218 202 206 223 231 142 131 165 170 178 222 221 242 249 242 243 239 231 222 218 219 219 223 226 227 229 225 220 222 228 232 233 231 232 234 236 237 237 236 236 236 235 236 236 239 242 242 240 241 244 244 243 244 241 239 237 235 234 236 238 240 241 243 245 244 243 243 244 245 247 248 248 248 246 245 246 248 249 250 251 251 252 254 257 260 261 263 265 267 264 258 254 252 252 256 252
236 259 239 211 199 187 98 114 147 131 105 250 250 266 262 253 250 242 234 232 231 227 225 226 226 227 229 228 224 224 228 231 230 231 231 231 233 236 238 237 236 237 237 237 238 239 241 242 242 241 243 245 245 245 245 244 243 242 241 241 241 243 244 247 249 250 248 247 247 247 249 250 250 250 249 248 247 248 249 250 251 253 254 255 256 257 257 258 259 261 261 257 255 251 248 250 250
213 224 255 235 186 194 157 150 148 135 217 285 326 293 279 272 265 257 243 242 245 238 235 235 232 231 231 231 230 228 228 229 228 231 233 232 232 233 234 235 236 236 237 237 237 237 238 240 241 242 243 245 246 246 247 247 245 245 244 244 244 244 246 247 249 250 249 248 247 248 249 249 249 249 249 248 247 247 248 249 251 252 254 255 255 256 256 257 258 257 257 255 253 248 244 244 247
195 207 239 232 211 212 103 133 155 144 241 267 335 303 279 252 243 251 242 235 241 240 237 237 234 234 234 232 233 233 231 230 228 229 232 233 232 232 231 234 236 237 237 237 237 238 238 239 241 242 244 246 247 248 249 248 246 244 243 241 241 242 243 244 246 248 248 247 248 248 249 249 250 249 248 248 248 248 248 249 250 251 252 253 254 255 256 257 257 257 255 252 250 248 244 244 246
205 212 227 237 248 204 116 130 145 91 261 203 163 270 280 255 236 242 236 221 231 234 232 234 233 232 233 232 233 235 236 234 230 230 232 234 234 234 233 234 238 239 239 239 240 241 241 242 243 244 245 246 247 249 249 248 246 245 244 242 241 241 244 246 249 252 252 252 253 252 251 251 252 253 250 248 248 249 250 250 250 251 251 251 252 253 255 255 254 254 253 249 248 248 244 243 245
226 209 208 222 262 76 122 144 135 250 258 180 167 216 272 300 279 265 273 257 241 230 226 230 230 229 230 232 234 235 235 233 228 228 230 232 234 234 233 234 237 239 239 241 241 242 243 243 244 245 246 248 249 249 249 249 247 246 246 246 247 247 250 254 256 257 257 258 259 257 256 256 255 255 254 251 249 249 250 251 252 252 252 252 251 251 253 252 251 252 252 251 250 248 241 240 244
244 232 189 194 200 114 139 157 176 221 81 157 210 200 265 284 273 265 279 283 271 248 231 225 222 223 225 231 234 235 235 232 227 224 223 225 229 232 234 236 238 239 240 241 240 239 240 241 243 245 247 249 251 250 250 251 251 250 248 248 249 250 252 255 256 255 256 257 258 259 259 259 259 258 258 256 253 250 250 251 252 253 254 253 252 251 251 250 250 250 250 249 250 248 242 241 245
255 262 167 168 185 155 133 148 215 269 61 246 217 152 251 263 261 253 234 252 263 251 238 223 213 217 221 228 233 235 237 237 233 230 226 225 227 232 237 241 242 243 243 242 241 240 240 240 242 244 246 249 251 251 250 252 254 254 253 251 251 252 253 254 253 252 253 253 255 259 260 260 260 260 261 259 257 254 252 251 251 252 254 254 253 252 249 246 247 249 247 246 249 249 245 245 246
225 195 103 94 89 95 101 145 175 62 358 231 189 158 223 258 254 243 210 227 249 248 239 228 216 217 220 225 231 234 238 241 240 237 235 233 233 236 239 242 243 244 245 244 243 242 239 238 239 242 246 248 250 250 250 251 252 253 254 253 253 254 254 252 251 250 250 251 253 256 258 259 261 262 263 262 260 257 254 252 251 251 253 253 253 251 247 243 243 246 245 246 250 249 248 249 248
146 124 93 78 59 74 68 27 69 47 268 212 179 176 192 257 242 217 210 218 229 235 231 234 227 220 221 223 227 233 237 240 242 242 241 240 240 239 238 239 241 243 244 244 243 242 239 238 238 241 244 247 249 250 251 251 252 252 253 254 255 256 255 253 251 251 251 252 253 255 256 258 261 263 264 264 262 258 255 252 251 251 252 252 251 249 247 244 241 242 243 247 250 248 248 249 246
138 129 118 98 66 64 47 25 71 228 244 192 185 183 183 227 233 217 241 221 198 214 214 226 236 220 217 219 223 232 236 238 240 240 241 239 237 237 235 236 239 241 242 243 243 242 241 243 244 244 245 247 249 249 249 251 251 252 254 254 254 255 254 253 254 255 254 254 256 258 257 257 258 260 262 262 261 259 256 254 252 250 249 250 249 248 247 244 240 239 242 245 245 245 247 249 244
156 147 139 127 119 107 181 185 169 231 242 241 210 187 195 233 239 248 271 250 193 204 210 230 246 202 188 201 211 221 226 227 228 231 235 235 235 235 234 235 239 242 242 243 244 243 244 247 248 247 247 248 249 248 249 249 249 250 252 253 253 253 252 253 254 256 257 258 258 259 260 259 258 259 261 261 261 260 260 258 255 251 249 249 249 249 246 243 240 238 239 241 241 242 247 249 248
177 162 157 162 158 172 206 197 213 237 246 274 238 132 237 268 250 226 245 248 231 223 218 226 234 198 174 189 208 214 217 220 222 226 231 234 235 236 236 238 239 243 244 243 245 245 246 249 248 247 248 247 246 246 248 248 249 250 249 250 251 251 251 252 253 255 257 258 259 259 260 260 260 261 263 263 263 263 264 263 260 256 252 249 248 248 246 243 241 239 238 238 240 243 247 249 250
185 171 159 180 180 187 196 184 204 206 42 313 245 159 196 211 233 214 228 245 247 249 235 219 220 219 211 211 219 223 225 229 229 226 229 232 231 232 234 236 236 238 240 240 242 243 244 245 244 244 245 245 246 247 247 249 251 253 252 252 252 252 252 252 252 253 254 255 256 256 256 257 260 262 264 265 264 264 265 265 263 259 253 249 246 245 245 243 241 239 237 237 240 243 244 246 248
199 163 167 206 205 173 159 175 203 166 101 280 222 237 221 205 273 260 240 254 251 249 242 214 207 214 218 221 228 234 236 237 234 229 233 235 233 231 231 233 233 233 234 236 239 240 240 241 240 241 241 243 247 249 251 253 255 256 256 255 255 253 253 253 253 253 252 252 252 253 254 256 259 262 264 265 265 265 265 265 264 259 252 247 244 243 243 243 241 240 239 238 240 240 240 243 246
186 188 190 199 117 101 120 218 304 104 214 228 187 249 282 276 283 263 228 238 244 235 233 216 204 202 212 229 238 243 246 244 236 234 238 238 235 235 233 234 235 236 237 239 239 239 239 238 238 239 241 243 246 248 251 253 254 254 254 255 254 253 253 254 255 256 256 254 253 255 257 258 261 262 262 262 263 264 265 265 263 258 251 245 242 241 241 242 242 242 242 242 242 239 238 241 245
160 193 182 123 48 49 114 187 71 132 240 243 181 219 240 211 262 254 213 218 230 228 221 214 211 206 212 227 235 242 250 248 233 230 234 236 236 235 232 234 236 237 239 240 239 238 237 237 238 240 243 246 249 251 253 254 255 256 256 256 256 257 256 257 258 260 260 260 259 259 259 260 262 262 260 259 260 261 263 264 263 258 251 244 239 240 242 243 243 242 243 245 244 243 242 242 245
165 184 156 134 138 215 172 182 192 187 225 261 222 216 213 209 224 220 198 206 216 226 212 199 207 205 211 225 232 239 247 243 229 227 232 233 233 231 230 235 238 238 239 242 244 241 238 237 240 244 249 252 255 256 257 259 260 261 261 260 259 259 259 260 260 261 261 260 259 258 256 257 258 259 258 258 257 258 259 260 261 258 251 242 238 238 242 244 244 243 243 243 242 241 242 243 244
202 185 169 178 213 184 180 194 185 170 204 253 260 220 225 225 207 188 197 198 202 214 207 198 200 201 213 227 230 233 239 235 230 232 234 229 225 229 233 239 244 243 244 249 251 246 239 237 241 248 253 255 255 256 257 258 261 262 264 265 265 265 265 265 264 264 263 262 259 256 254 253 254 254 255 256 256 256 256 257 258 255 248 240 237 237 240 243 243 243 243 243 242 241 241 243 244
180 184 183 189 186 128 155 213 214 152 176 233 253 248 257 244 202 197 201 193 196 206 205 206 202 200 209 214 210 215 222 224 224 225 230 226 223 229 236 241 246 245 242 243 243 239 233 233 238 244 248 250 252 254 256 258 261 265 268 271 272 272 271 269 268 266 265 264 261 257 253 251 250 251 253 255 256 256 257 258 256 251 243 239 236 235 237 239 241 244 245 246 247 246 245 244 245
181 186 185 180 177 138 141 211 214 189 190 198 209 251 271 266 202 186 189 183 191 199 197 199 195 187 183 180 183 197 209 215 218 217 223 226 226 232 239 242 241 234 228 226 224 224 222 224 229 235 240 246 249 253 257 261 264 268 270 271 270 268 266 265 264 264 263 262 261 258 255 252 251 250 251 254 257 259 262 261 256 252 245 240 237 235 235 238 240 243 245 246 247 246 245 245 247